Simultaneous Nadir Overpasses (SNOs) Predictions

Prediction of SNOs between GOES-17 and TERRA Satellite Orbit:

Table of predicted SNOs for the next 14.0 days since TLE Epoch: 10/29/2022
Index Date Time (GOES-17) GOES-17 Lat,Lon TERRA Lat,Lon Distance(km) Time Diff (sec)
1 10/29/2022 19:06:50 -0.06,-137.33 -1.00,-133.03 489.53 80
2 10/30/2022 07:27:20 0.06,-137.33 -0.08,-138.01 77.23 80
3 11/01/2022 07:09:01 0.05,-137.31 0.69,-134.22 351.47 80
4 11/01/2022 19:29:23 -0.05,-137.31 0.33,-139.17 211.05 80
5 11/03/2022 19:16:24 -0.04,-137.30 -0.45,-135.38 217.53 80
6 11/04/2022 07:36:55 0.04,-137.29 -0.61,-140.36 349.17 80
7 11/06/2022 07:18:36 0.04,-137.28 0.19,-136.58 79.21 80
8 11/06/2022 19:38:57 -0.04,-137.27 0.88,-141.52 483.57 80
9 11/08/2022 19:23:18 -0.04,-137.25 0.06,-137.74 55.75 80
10 11/10/2022 19:10:18 -0.03,-137.22 -0.71,-133.95 371.47 80
11 11/11/2022 07:30:49 0.03,-137.21 -0.33,-138.93 195.47 80
